TimeEDT,TemperatureF,Dew PointF,Humidity,Sea Level PressureIn,VisibilityMPH,Wind Direction,Wind SpeedMPH,Gust SpeedMPH,PrecipitationIn,Events,Conditions,WindDirDegrees,DateUTC
12:29 AM,48.2,46.4,93,30.14,0.5,Calm,Calm,-,N/A,Fog,Fog,0,2012-10-27 04:29:00
12:41 AM,48.2,46.4,93,30.14,0.2,Calm,Calm,-,N/A,Fog,Fog,0,2012-10-27 04:41:00
12:54 AM,48.0,45.0,89,30.15,0.2,Calm,Calm,-,N/A,Fog,Fog,0,2012-10-27 04:54:00
1:54 AM,48.0,45.0,89,30.13,0.2,Calm,Calm,-,N/A,Fog,Fog,0,2012-10-27 05:54:00
2:54 AM,48.0,46.0,93,30.12,0.2,Calm,Calm,-,N/A,Fog,Fog,0,2012-10-27 06:54:00
3:54 AM,48.0,45.0,89,30.11,0.2,Calm,Calm,-,N/A,Fog,Fog,0,2012-10-27 07:54:00
4:54 AM,46.9,45.0,93,30.10,0.2,Calm,Calm,-,N/A,Fog,Fog,0,2012-10-27 08:54:00
5:54 AM,46.9,45.0,93,30.10,0.2,Calm,Calm,-,N/A,Fog,Fog,0,2012-10-27 09:54:00
6:54 AM,46.9,45.0,93,30.09,0.2,Calm,Calm,-,0.01,Fog,Fog,0,2012-10-27 10:54:00
7:54 AM,48.0,46.0,93,30.10,0.2,Calm,Calm,-,N/A,Fog,Fog,0,2012-10-27 11:54:00
8:07 AM,48.2,46.4,93,30.09,1.0,Calm,Calm,-,N/A,,Overcast,0,2012-10-27 12:07:00
8:35 AM,48.2,46.4,93,30.10,0.2,Calm,Calm,-,N/A,Fog,Fog,0,2012-10-27 12:35:00
8:54 AM,48.0,46.0,93,30.11,0.2,Calm,Calm,-,N/A,Fog,Fog,0,2012-10-27 12:54:00
9:10 AM,48.2,46.4,93,30.10,0.8,Calm,Calm,-,N/A,,Overcast,0,2012-10-27 13:10:00
9:28 AM,48.2,46.4,93,30.10,0.2,Calm,Calm,-,N/A,Fog,Fog,0,2012-10-27 13:28:00
10:29 AM,51.8,48.2,88,30.10,0.5,Calm,Calm,-,N/A,Fog,Fog,0,2012-10-27 14:29:00
10:54 AM,52.0,50.0,93,30.11,2.5,Calm,Calm,-,N/A,,Overcast,0,2012-10-27 14:54:00
11:35 AM,55.4,50.0,82,30.09,9.0,Calm,Calm,-,N/A,,Overcast,0,2012-10-27 15:35:00
11:54 AM,55.0,50.0,83,30.10,10.0,Calm,Calm,-,N/A,,Overcast,0,2012-10-27 15:54:00
12:17 PM,55.4,50.0,82,30.08,10.0,Calm,Calm,-,N/A,,Overcast,0,2012-10-27 16:17:00
12:33 PM,55.4,50.0,82,30.06,10.0,Calm,Calm,-,N/A,,Overcast,0,2012-10-27 16:33:00
12:54 PM,57.0,50.0,77,30.06,10.0,Calm,Calm,-,N/A,,Overcast,0,2012-10-27 16:54:00
1:04 PM,57.2,50.0,77,30.05,10.0,Calm,Calm,-,N/A,,Overcast,0,2012-10-27 17:04:00
1:54 PM,57.9,51.1,78,30.05,10.0,Calm,Calm,-,N/A,,Overcast,0,2012-10-27 17:54:00
2:54 PM,59.0,51.1,75,30.04,10.0,Calm,Calm,-,N/A,,Unknown,0,2012-10-27 18:54:00
3:08 PM,57.2,51.8,82,30.03,10.0,Calm,Calm,-,N/A,,Overcast,0,2012-10-27 19:08:00
3:54 PM,59.0,51.1,75,30.04,10.0,Calm,Calm,-,N/A,,Overcast,0,2012-10-27 19:54:00
4:54 PM,59.0,52.0,78,30.04,10.0,Calm,Calm,-,N/A,,Overcast,0,2012-10-27 20:54:00
5:54 PM,57.9,52.0,81,30.05,10.0,Calm,Calm,-,N/A,,Overcast,0,2012-10-27 21:54:00
6:54 PM,55.9,52.0,87,30.05,10.0,Calm,Calm,-,N/A,,Overcast,0,2012-10-27 22:54:00
7:54 PM,55.0,51.1,86,30.05,7.0,Calm,Calm,-,N/A,,Mostly Cloudy,0,2012-10-27 23:54:00
8:54 PM,53.1,50.0,89,30.06,2.5,Calm,Calm,-,N/A,,Overcast,0,2012-10-28 00:54:00
9:10 PM,51.8,48.2,88,30.05,4.0,Calm,Calm,-,N/A,,Overcast,0,2012-10-28 01:10:00
9:54 PM,53.1,50.0,89,30.06,6.0,Calm,Calm,-,N/A,,Overcast,0,2012-10-28 01:54:00
10:14 PM,53.6,50.0,88,30.05,5.0,Calm,Calm,-,N/A,,Overcast,0,2012-10-28 02:14:00
10:54 PM,53.1,50.0,89,30.06,6.0,Calm,Calm,-,N/A,,Overcast,0,2012-10-28 02:54:00
11:21 PM,53.6,50.0,88,30.04,6.0,Calm,Calm,-,N/A,,Overcast,0,2012-10-28 03:21:00
11:54 PM,53.1,50.0,89,30.04,6.0,Calm,Calm,-,N/A,,Overcast,0,2012-10-28 03:54:00